Flag Weather past 2 weeks in Aalborg, Denmark

Now
45 °F

Overcast.


Feels Like: 42 °F
Forecast: 42 / 45 °F
Wind: 5 mph from Southeast

Location: Aalborg Airport

Current Time: Nov 26, 2014 at 4:45:55 PM

Latest Report: Nov 26, 2014 at 4:20 PM


Visibility: N/A

Pressure: 30.21 "Hg

Humidity: 93%

Dew point: 43 °F

Location of AalborgLocation

Historic Weather in Aalborg — Graph

°F

Aalborg temperature yesterday

Maximum temperature yesterday: 48 °F (at 1:20 PM)
Minimum temperature yesterday: 41 °F (at 10:50 PM)
Average temperature yesterday: 45 °F

Past Weeks' High & Low Weather Summary

 TemperatureHumidityPressure
High52 °F (Nov 12, 8:50 PM)100% (Nov 11, 6:20 PM)30.42 "Hg (Nov 11, 6:20 PM)
Low32 °F (Nov 21, 3:50 AM)71% (Nov 18, 11:20 PM)29.80 "Hg (Nov 24, 1:20 AM)
Average46 °F90%30.09 "Hg
* Reported Nov 11 3:20 PM — Nov 26 3:50 PM, Aalborg, Weather by CustomWeather, © 2014

Note: Actual official high and low records may vary slightly from our data, if they occured in-between our weather recording intervals... More about our weather records

Advertising

Aalborg weather history for previous 24 hours

 ConditionsComfort  
Time TempWeatherWind HumidityBarometerVisibility
3:50 PM
Nov 26
46 °FOvercast.7 mph87%30.21 "HgN/A
3:20 PM46 °FOvercast.6 mph93%30.21 "HgN/A
2:50 PM46 °FOvercast.3 mph93%30.21 "HgN/A
2:20 PM46 °FOvercast.3 mph93%30.21 "HgN/A
1:50 PM46 °FOvercast.3 mph93%30.24 "HgN/A
1:20 PM46 °FOvercast.3 mph93%30.24 "HgN/A
12:50 PM45 °FPartly sunny.5 mph100%30.24 "HgN/A
12:20 PM45 °FOvercast.5 mph93%30.24 "HgN/A
11:50 AM45 °FOvercast.3 mph93%30.27 "HgN/A
11:20 AM45 °FOvercast.2 mph93%30.27 "HgN/A
10:20 AM43 °FOvercast.2 mph100%30.27 "HgN/A
9:50 AM43 °FOvercast.2 mph93%30.27 "Hg5 mi
9:20 AM41 °FPartly sunny.1 mph100%30.27 "Hg5 mi
8:50 AM41 °FPartly sunny.1 mph93%30.27 "Hg4 mi
8:20 AM41 °FPassing clouds.No wind93%30.27 "Hg4 mi
7:50 AM39 °FPassing clouds.No wind100%30.27 "Hg4 mi
7:20 AM41 °FPassing clouds.No wind100%30.27 "Hg4 mi
6:50 AM39 °FPartly cloudy.No wind100%30.27 "Hg4 mi
6:20 AM39 °FFog.No wind93%30.24 "Hg1 mi
5:50 AM37 °FFog.No wind100%30.27 "Hg1 mi
5:20 AM37 °FFog.1 mph100%30.27 "Hg1 mi
4:20 AM36 °FFog.2 mph100%30.27 "Hg0 mi
3:50 AM34 °FFog.1 mph100%30.27 "Hg0 mi
3:20 AM37 °FFog.1 mph100%30.27 "Hg0 mi
2:50 AM39 °FFog.No wind93%30.27 "Hg0 mi
2:20 AM37 °FFog.2 mph100%30.27 "Hg0 mi
1:50 AM39 °FFog.2 mph93%30.27 "Hg1 mi
1:20 AM39 °FPassing clouds.3 mph93%30.27 "Hg0 mi
12:50 AM39 °FPassing clouds.5 mph100%30.30 "HgN/A
12:20 AM41 °FPassing clouds.2 mph93%30.30 "HgN/A
11:50 PM
Nov 25
41 °FClear.3 mph93%30.30 "Hg10 mi
11:20 PM41 °FPassing clouds.3 mph93%30.30 "HgN/A
10:50 PM41 °FPassing clouds.5 mph93%30.27 "HgN/A
10:20 PM43 °FPassing clouds.3 mph93%30.30 "HgN/A
9:50 PM43 °FPassing clouds.3 mph100%30.30 "HgN/A
9:20 PM43 °FPassing clouds.5 mph93%30.27 "HgN/A
8:50 PM45 °FPassing clouds.3 mph93%30.27 "HgN/A
8:20 PM46 °FPassing clouds.5 mph93%30.30 "HgN/A
7:50 PM46 °FPassing clouds.6 mph93%30.30 "HgN/A
7:20 PM46 °FPassing clouds.3 mph93%30.30 "HgN/A
6:50 PM46 °FPassing clouds.5 mph93%30.30 "HgN/A
6:20 PM46 °FPassing clouds.5 mph93%30.30 "HgN/A
5:50 PM46 °FPassing clouds.2 mph93%30.27 "HgN/A
5:20 PM46 °FPassing clouds.3 mph93%30.27 "HgN/A
4:50 PM45 °FPartly cloudy.6 mph93%30.27 "HgN/A
4:20 PM45 °FPassing clouds.5 mph93%30.27 "HgN/A
Weather by CustomWeather, © 2014

See weather overviewHow to use our weather pages